Location: Baili�vre
(50.0696°N, 4.2409°E)
Time: 05:20:23
(UTC+00:00)

SPOT 5 - Pass Details

Date: 08 August 2020
Orbit: 624 x 814 km, 98.3° (Epoch: 23 September)

Event Time Altitude Azimuth Distance (km) Brightness Sun altitude
Exits shadow 20:35:50 17° 127° (SE) 1,593 4.0 -11.7°
Maximum altitude 20:38:43 38° 67° (ENE) 971 3.4 -12.0°
Drops below altitude 10° 20:42:45 10° 360° (N) 2,027 5.9 -12.5°
Sets 20:45:05 0° 352° (N) 2,955 7.0 -12.8°
